Weather History for Mumbai, India

Change the Weather History Date:

Thursday, March 14, 2013

  Actual Average Record
Temperature  
Mean Temperature 76 °F -  
Max Temperature 87 °F 89 °F 96 °F (2004)
Min Temperature 65 °F 73 °F 65 °F (2013)
Cooling Degree Days 11    
Growing Degree Days 26 (Base 50)    
Moisture  
Dew Point 67 °F    
Average Humidity 65    
Maximum Humidity 84    
Minimum Humidity 39    
Precipitation  
Precipitation 0.00 in - - ()
Sea Level Pressure  
Sea Level Pressure 29.88 in    
Wind  
Wind Speed 5 mph ()    
Max Wind Speed 16 mph    
Max Gust Speed 21 mph    
Visibility 2.9 miles    
Events      
Averages and records for this station are not official NWS values.
T = Trace of Precipitation, MM = Missing Value Source: Averaged Metar Reports

Daily Weather History Graph

Daily Weather History Graph

Search for Another Location

Airport:

Trip Planner

Search our weather history database for the weather conditions in past years. The results will help you decide how hot, cold, wet, or windy it might be!

Date:

Astronomy

Mar. 14, 2013 Rise Set
Actual Time 6:47 AM IST 6:47 PM IST
Civil Twilight 6:25 AM IST 7:09 PM IST
Nautical Twilight 6:00 AM IST 7:35 PM IST
Astronomical Twilight 5:35 AM IST 8:00 PM IST
Moon 8:11 AM IST (3/14) 9:07 PM IST (3/14)
Length of Visible Light 12h 43m
Length of Day
12h 00m
Waxing Crescent, 6% of the Moon is Illuminated
Mar 14
Waxing Crescent
Mar 19
First Quarter
Mar 27
Full
Apr 3
Last Quarter
Apr 10
New

Hourly Weather History & Observations

Time (IST) Temp. Heat Index Dew Point Humidity Pressure Visibility Wind Dir Wind Speed Gust Speed Precip Events Conditions
12:10 AM 77.0 °F - 68.0 °F 74% 29.89 in 2.5 mi WNW 5.8 mph - N/A   Haze
12:40 AM 77.0 °F - 66.2 °F 69% 29.89 in 2.5 mi WNW 4.6 mph - N/A   Haze
1:10 AM 77.0 °F - 66.2 °F 69% 29.89 in 2.5 mi WNW 3.5 mph - N/A   Haze
1:40 AM 77.0 °F - 66.2 °F 69% 29.89 in 2.5 mi NNW 4.6 mph - N/A   Haze
2:10 AM 75.2 °F - 66.2 °F 73% 29.89 in 2.5 mi NW 3.5 mph - N/A   Haze
2:30 AM 70 °F - 65 °F 81% 29.89 in 1 mi Calm Calm - -   Haze
2:40 AM 75.2 °F - 66.2 °F 73% 29.89 in 2.5 mi Calm Calm - N/A   Haze
3:10 AM 75.2 °F - 66.2 °F 73% 29.86 in 2.5 mi ENE 3.5 mph - N/A   Haze
3:40 AM 75.2 °F - 68.0 °F 78% 29.86 in 2.5 mi NNE 3.5 mph - N/A   Haze
4:10 AM 75.2 °F - 66.2 °F 73% 29.86 in 2.5 mi NE 4.6 mph - N/A   Mist
4:40 AM 73.4 °F - 66.2 °F 78% 29.86 in 2.5 mi East 5.8 mph - N/A   Mist
5:10 AM 73.4 °F - 66.2 °F 78% 29.86 in 2.5 mi East 4.6 mph - N/A   Mist
5:30 AM 68 °F - 64 °F 84% 29.88 in 1 mi Calm Calm - -   Haze
5:40 AM 73.4 °F - 66.2 °F 78% 29.86 in 2.5 mi East 4.6 mph - N/A   Mist
6:10 AM 73.4 °F - 66.2 °F 78% 29.89 in 2.5 mi ENE 5.8 mph - N/A   Mist
7:10 AM 73.4 °F - 66.2 °F 78% 29.89 in 1.6 mi ENE 4.6 mph - N/A   Mist
7:40 AM 73.4 °F - 64.4 °F 73% 29.92 in 1.6 mi NE 5.8 mph - N/A   Haze
8:30 AM 73 °F - 65 °F 70% 29.91 in 1 mi Calm Calm - -   Haze
8:40 AM 75.2 °F - 64.4 °F 69% 29.92 in 2.2 mi NE 5.8 mph - N/A   Smoke
9:10 AM 77.0 °F - 66.2 °F 69% 29.95 in 2.5 mi North 4.6 mph - N/A   Smoke
9:40 AM 78.8 °F - 66.2 °F 65% 29.95 in 2.5 mi Calm Calm - N/A   Smoke
10:10 AM 80.6 °F 82.7 °F 66.2 °F 61% 29.95 in 2.5 mi Variable 3.5 mph - N/A   Smoke
11:10 AM 84.2 °F 86.6 °F 66.2 °F 55% 29.92 in 3.1 mi NNW 8.1 mph - N/A   Smoke
11:30 AM 86 °F - 68 °F 46% 29.94 in 1 mi North 6.9 mph - -   Smoke
11:40 AM 86.0 °F 88.2 °F 66.2 °F 51% 29.92 in 3.7 mi NW 9.2 mph - N/A   Unknown
12:10 PM 86.0 °F 90.4 °F 69.8 °F 58% 29.92 in 3.7 mi WNW 10.4 mph - N/A   Unknown
12:40 PM 86.0 °F 90.4 °F 69.8 °F 58% 29.89 in 3.7 mi WNW 11.5 mph - N/A   Unknown
1:10 PM 84.2 °F 88.4 °F 69.8 °F 62% 29.89 in 3.7 mi West 11.5 mph - N/A   Unknown
1:40 PM 84.2 °F 89.6 °F 71.6 °F 66% 29.86 in 3.7 mi WNW 13.8 mph - N/A   Partly Cloudy
2:10 PM 86.0 °F 90.4 °F 69.8 °F 58% 29.86 in 3.7 mi WNW 12.7 mph - N/A   Unknown
2:30 PM 87 °F - 70 °F 49% 29.85 in 2 mi NW 13.8 mph - -  
2:40 PM 86.0 °F 90.4 °F 69.8 °F 58% 29.83 in 4.3 mi WNW 8.1 mph - N/A   Unknown
3:10 PM 86.0 °F 89.4 °F 68.0 °F 55% 29.83 in 4.3 mi WNW 12.7 mph - N/A   Unknown
3:40 PM 86.0 °F 90.4 °F 69.8 °F 58% 29.83 in 5.0 mi WNW 11.5 mph - N/A   Unknown
4:10 PM 86.0 °F 89.4 °F 68.0 °F 55% 29.83 in 5.0 mi West 13.8 mph - N/A   Unknown
4:40 PM 86.0 °F 86.6 °F 62.6 °F 45% 29.83 in 5.0 mi NW 10.4 mph - N/A   Unknown
5:10 PM 86.0 °F 87.3 °F 64.4 °F 48% 29.83 in 4.3 mi WNW 9.2 mph 20.7 mph N/A   Unknown
5:30 PM 86 °F - 65 °F 39% 29.82 in 1 mi NW 16.1 mph - -   Smoke
5:40 PM 86.0 °F 87.3 °F 64.4 °F 48% 29.83 in 3.7 mi WNW 9.2 mph 20.7 mph N/A   Unknown
6:10 PM 84.2 °F 85.6 °F 64.4 °F 51% 29.83 in 3.7 mi WNW 9.2 mph 20.7 mph N/A   Unknown
6:40 PM 82.4 °F 84.6 °F 66.2 °F 58% 29.83 in 3.7 mi WNW 9.2 mph 20.7 mph N/A   Unknown
7:10 PM 82.4 °F 85.4 °F 68.0 °F 62% 29.83 in 3.7 mi WNW 9.2 mph - N/A   Unknown
7:40 PM 80.6 °F 83.2 °F 68.0 °F 65% 29.86 in 3.7 mi WNW 10.4 mph - N/A   Unknown
8:10 PM 80.6 °F 83.2 °F 68.0 °F 65% 29.86 in 3.7 mi WNW 10.4 mph - N/A   Unknown
8:30 PM 81 °F - 69 °F 58% 29.87 in 1 mi NW 9.2 mph - -   Smoke
8:40 PM 80.6 °F 83.2 °F 68.0 °F 65% 29.89 in 3.7 mi NW 6.9 mph - N/A   Unknown
9:10 PM 80.6 °F 83.2 °F 68.0 °F 65% 29.89 in 3.7 mi WNW 4.6 mph - N/A   Unknown
10:10 PM 80.6 °F 83.9 °F 69.8 °F 70% 29.89 in 3.1 mi Calm Calm - N/A   Smoke
10:40 PM 80.6 °F 83.9 °F 69.8 °F 70% 29.92 in 3.1 mi NW 3.5 mph - N/A   Smoke
11:10 PM 80.6 °F 83.9 °F 69.8 °F 70% 29.92 in 3.1 mi NNW 4.6 mph - N/A   Smoke
11:30 PM 76 °F - 69 °F 75% 29.91 in 1 mi North 3.5 mph - -   Haze
11:40 PM 78.8 °F - 69.8 °F 74% 29.92 in 3.1 mi Calm Calm - N/A   Smoke